Year,Month,Day,Hour,Minute,Value (Times are PST for temperature in C)
2021,06,27,00,00,19.60
2021,06,27,00,01,19.50
2021,06,27,00,02,19.50
2021,06,27,00,03,19.50
2021,06,27,00,04,19.40
2021,06,27,00,05,19.40
2021,06,27,00,06,19.40
2021,06,27,00,07,19.30
2021,06,27,00,08,19.30
2021,06,27,00,09,19.20
2021,06,27,00,10,19.20
2021,06,27,00,11,19.20
2021,06,27,00,12,19.10
2021,06,27,00,13,19.10
2021,06,27,00,14,19.00
2021,06,27,00,15,19.00
2021,06,27,00,16,18.90
2021,06,27,00,17,18.90
2021,06,27,00,18,18.80
2021,06,27,00,19,18.80
2021,06,27,00,20,18.80
2021,06,27,00,21,18.70
2021,06,27,00,22,18.70
2021,06,27,00,23,18.60
2021,06,27,00,24,18.60
2021,06,27,00,25,18.60
2021,06,27,00,26,18.60
2021,06,27,00,27,18.50
2021,06,27,00,28,18.50
2021,06,27,00,29,18.50
2021,06,27,00,30,18.40
2021,06,27,00,31,18.40
2021,06,27,00,32,18.40
2021,06,27,00,33,18.30
2021,06,27,00,34,18.30
2021,06,27,00,35,18.30
2021,06,27,00,36,18.30
2021,06,27,00,37,18.30
2021,06,27,00,38,18.20
2021,06,27,00,39,18.20
2021,06,27,00,40,18.20
2021,06,27,00,41,18.20
2021,06,27,00,42,18.20
2021,06,27,00,43,18.20
2021,06,27,00,44,18.20
2021,06,27,00,45,18.20
2021,06,27,00,46,18.20
2021,06,27,00,47,18.20
2021,06,27,00,48,18.20
2021,06,27,00,49,18.20
2021,06,27,00,50,18.20
2021,06,27,00,51,18.20
2021,06,27,00,52,18.20
2021,06,27,00,53,18.20
2021,06,27,00,54,18.20
2021,06,27,00,55,18.20
2021,06,27,00,56,18.20
2021,06,27,00,57,18.20
2021,06,27,00,58,18.20
2021,06,27,00,59,18.20
2021,06,27,01,00,18.20
2021,06,27,01,01,18.20
2021,06,27,01,02,18.20
2021,06,27,01,03,18.20
2021,06,27,01,04,18.20
2021,06,27,01,05,18.20
2021,06,27,01,06,18.20
2021,06,27,01,07,18.20
2021,06,27,01,08,18.20
2021,06,27,01,09,18.20
2021,06,27,01,10,18.20
2021,06,27,01,11,18.10
2021,06,27,01,12,18.10
2021,06,27,01,13,18.10
2021,06,27,01,14,18.00
2021,06,27,01,15,18.00
2021,06,27,01,16,18.00
2021,06,27,01,17,17.90
2021,06,27,01,18,17.90
2021,06,27,01,19,17.90
2021,06,27,01,20,17.90
2021,06,27,01,21,17.90
2021,06,27,01,22,17.90
2021,06,27,01,23,17.90
2021,06,27,01,24,17.90
2021,06,27,01,25,17.90
2021,06,27,01,26,17.90
2021,06,27,01,27,17.90
2021,06,27,01,28,17.90
2021,06,27,01,29,17.80
2021,06,27,01,30,17.80
2021,06,27,01,31,17.80
2021,06,27,01,32,17.80
2021,06,27,01,33,17.80
2021,06,27,01,34,17.90
2021,06,27,01,35,17.80
2021,06,27,01,36,17.80
2021,06,27,01,37,17.80
2021,06,27,01,38,17.80
2021,06,27,01,39,17.80
2021,06,27,01,40,17.80
2021,06,27,01,41,17.80
2021,06,27,01,42,17.80
2021,06,27,01,43,17.80
2021,06,27,01,44,17.70
2021,06,27,01,45,17.70
2021,06,27,01,46,17.70
2021,06,27,01,47,17.70
2021,06,27,01,48,17.80
2021,06,27,01,49,17.80
2021,06,27,01,50,17.80
2021,06,27,01,51,17.80
2021,06,27,01,52,17.80
2021,06,27,01,53,17.90
2021,06,27,01,54,17.90
2021,06,27,01,55,18.00
2021,06,27,01,56,18.00
2021,06,27,01,57,18.00
2021,06,27,01,58,18.00
2021,06,27,01,59,18.00
2021,06,27,02,00,18.10
2021,06,27,02,01,18.10
2021,06,27,02,02,18.10
2021,06,27,02,03,18.00
2021,06,27,02,04,18.00
2021,06,27,02,05,18.00
2021,06,27,02,06,18.10
2021,06,27,02,07,18.10
2021,06,27,02,08,18.10
2021,06,27,02,09,18.10
2021,06,27,02,10,18.10
2021,06,27,02,11,18.10
2021,06,27,02,12,18.10
2021,06,27,02,13,18.00
2021,06,27,02,14,18.00
2021,06,27,02,15,18.00
2021,06,27,02,16,18.00
2021,06,27,02,17,17.90
2021,06,27,02,18,17.90
2021,06,27,02,19,17.90
2021,06,27,02,20,17.90
2021,06,27,02,21,17.90
2021,06,27,02,22,17.90
2021,06,27,02,23,17.90
2021,06,27,02,24,17.90
2021,06,27,02,25,17.90
2021,06,27,02,26,17.90
2021,06,27,02,27,17.90
2021,06,27,02,28,17.80
2021,06,27,02,29,17.80
2021,06,27,02,30,17.80
2021,06,27,02,31,17.80
2021,06,27,02,32,17.80
2021,06,27,02,33,17.80
2021,06,27,02,34,17.80
2021,06,27,02,35,17.80
2021,06,27,02,36,17.80
2021,06,27,02,37,17.80
2021,06,27,02,38,17.80
2021,06,27,02,39,17.80
2021,06,27,02,40,17.80
2021,06,27,02,41,17.80
2021,06,27,02,42,17.80
2021,06,27,02,43,17.80
2021,06,27,02,44,17.80
2021,06,27,02,45,17.80
2021,06,27,02,46,17.80
2021,06,27,02,47,17.90
2021,06,27,02,48,17.80
2021,06,27,02,49,17.80
2021,06,27,02,50,17.80
2021,06,27,02,51,17.80
2021,06,27,02,52,17.80
2021,06,27,02,53,17.80
2021,06,27,02,54,17.80
2021,06,27,02,55,17.80
2021,06,27,02,56,17.80
2021,06,27,02,57,17.90
2021,06,27,02,58,17.90
2021,06,27,02,59,17.90
2021,06,27,03,00,17.90
2021,06,27,03,01,17.90
2021,06,27,03,02,17.80
2021,06,27,03,03,17.80
2021,06,27,03,04,17.80
2021,06,27,03,05,17.90
2021,06,27,03,06,17.80
2021,06,27,03,07,17.80
2021,06,27,03,08,17.80
2021,06,27,03,09,17.80
2021,06,27,03,10,17.80
2021,06,27,03,11,17.80
2021,06,27,03,12,17.80
2021,06,27,03,13,17.80
2021,06,27,03,14,17.80
2021,06,27,03,15,17.80
2021,06,27,03,16,17.80
2021,06,27,03,17,17.80
2021,06,27,03,18,17.70
2021,06,27,03,19,17.70
2021,06,27,03,20,17.70
2021,06,27,03,21,17.70
2021,06,27,03,22,17.70
2021,06,27,03,23,17.60
2021,06,27,03,24,17.60
2021,06,27,03,25,17.60
2021,06,27,03,26,17.60
2021,06,27,03,27,17.50
2021,06,27,03,28,17.50
2021,06,27,03,29,17.40
2021,06,27,03,30,17.40
2021,06,27,03,31,17.40
2021,06,27,03,32,17.30
2021,06,27,03,33,17.30
2021,06,27,03,34,17.30
2021,06,27,03,35,17.20
2021,06,27,03,36,17.20
2021,06,27,03,37,17.20
2021,06,27,03,38,17.20
2021,06,27,03,39,17.20
2021,06,27,03,40,17.20
2021,06,27,03,41,17.20
2021,06,27,03,42,17.20
2021,06,27,03,43,17.20
2021,06,27,03,44,17.20
2021,06,27,03,45,17.20
2021,06,27,03,46,17.20
2021,06,27,03,47,17.20
2021,06,27,03,48,17.20
2021,06,27,03,49,17.20
2021,06,27,03,50,17.30
2021,06,27,03,51,17.30
2021,06,27,03,52,17.30
2021,06,27,03,53,17.40
2021,06,27,03,54,17.40
2021,06,27,03,55,17.40
2021,06,27,03,56,17.40
2021,06,27,03,57,17.40
2021,06,27,03,58,17.40
2021,06,27,03,59,17.40
2021,06,27,04,00,17.40
2021,06,27,04,01,17.40
2021,06,27,04,02,17.40
2021,06,27,04,03,17.40
2021,06,27,04,04,17.40
2021,06,27,04,05,17.30
2021,06,27,04,06,17.30
2021,06,27,04,07,17.30
2021,06,27,04,08,17.30
2021,06,27,04,09,17.30
2021,06,27,04,10,17.30
2021,06,27,04,11,17.30
2021,06,27,04,12,17.30
2021,06,27,04,13,17.20
2021,06,27,04,14,17.20
2021,06,27,04,15,17.20
2021,06,27,04,16,17.20
2021,06,27,04,17,17.20
2021,06,27,04,18,17.20
2021,06,27,04,19,17.20
2021,06,27,04,20,17.20
2021,06,27,04,21,17.10
2021,06,27,04,22,17.10
2021,06,27,04,23,17.10
2021,06,27,04,24,17.10
2021,06,27,04,25,17.10
2021,06,27,04,26,17.00
2021,06,27,04,27,17.00
2021,06,27,04,28,16.90
2021,06,27,04,29,16.90
2021,06,27,04,30,16.90
2021,06,27,04,31,16.90
2021,06,27,04,32,16.90
2021,06,27,04,33,16.90
2021,06,27,04,34,16.90
2021,06,27,04,35,16.90
2021,06,27,04,36,16.90
2021,06,27,04,37,16.90
2021,06,27,04,38,16.90
2021,06,27,04,39,16.90
2021,06,27,04,40,17.00
2021,06,27,04,41,17.00
2021,06,27,04,42,17.20
2021,06,27,04,43,17.30
2021,06,27,04,44,17.30
2021,06,27,04,45,17.30
2021,06,27,04,46,17.30
2021,06,27,04,47,17.30
2021,06,27,04,48,17.30
2021,06,27,04,49,17.30
2021,06,27,04,50,17.20
2021,06,27,04,51,17.20
2021,06,27,04,52,17.20
2021,06,27,04,53,17.20
2021,06,27,04,54,17.20
2021,06,27,04,55,17.20
2021,06,27,04,56,17.20
2021,06,27,04,57,17.20
2021,06,27,04,58,17.10
2021,06,27,04,59,17.10
2021,06,27,05,00,17.10
2021,06,27,05,01,17.00
2021,06,27,05,02,17.00
2021,06,27,05,03,16.90
2021,06,27,05,04,16.90
2021,06,27,05,05,16.90
2021,06,27,05,06,16.80
2021,06,27,05,07,16.80
2021,06,27,05,08,16.80
2021,06,27,05,09,16.80
2021,06,27,05,10,16.80
2021,06,27,05,11,16.80
2021,06,27,05,12,16.80
2021,06,27,05,13,16.80
2021,06,27,05,14,16.80
2021,06,27,05,15,16.80
2021,06,27,05,16,16.80
2021,06,27,05,17,16.70
2021,06,27,05,18,16.70
2021,06,27,05,19,16.70
2021,06,27,05,20,16.70
2021,06,27,05,21,16.70
2021,06,27,05,22,16.70
2021,06,27,05,23,16.70
2021,06,27,05,24,16.70
2021,06,27,05,25,16.70
2021,06,27,05,26,16.60
2021,06,27,05,27,16.60
2021,06,27,05,28,16.70
2021,06,27,05,29,16.70
2021,06,27,05,30,16.70
2021,06,27,05,31,16.70
2021,06,27,05,32,16.80
2021,06,27,05,33,16.80
2021,06,27,05,34,16.90
2021,06,27,05,35,16.90
2021,06,27,05,36,16.90
2021,06,27,05,37,17.00
2021,06,27,05,38,17.00
2021,06,27,05,39,17.10
2021,06,27,05,40,17.10
2021,06,27,05,41,17.20
2021,06,27,05,42,17.20
2021,06,27,05,43,17.20
2021,06,27,05,44,17.20
2021,06,27,05,45,17.20
2021,06,27,05,46,17.20
2021,06,27,05,47,17.20
2021,06,27,05,48,17.20
2021,06,27,05,49,17.20
2021,06,27,05,50,17.30
2021,06,27,05,51,17.20
2021,06,27,05,52,17.20
2021,06,27,05,53,17.20
2021,06,27,05,54,17.30
2021,06,27,05,55,17.30
2021,06,27,05,56,17.30
2021,06,27,05,57,17.30
2021,06,27,05,58,17.30
2021,06,27,05,59,17.40
2021,06,27,06,00,17.40
2021,06,27,06,01,17.40
2021,06,27,06,02,17.40
2021,06,27,06,03,17.40
2021,06,27,06,04,17.40
2021,06,27,06,05,17.50
2021,06,27,06,06,17.50
2021,06,27,06,07,17.50
2021,06,27,06,08,17.60
2021,06,27,06,09,17.60
2021,06,27,06,10,17.70
2021,06,27,06,11,17.70
2021,06,27,06,12,17.70
2021,06,27,06,13,17.80
2021,06,27,06,14,17.80
2021,06,27,06,15,17.80
2021,06,27,06,16,17.90
2021,06,27,06,17,17.90
2021,06,27,06,18,17.90
2021,06,27,06,19,17.90
2021,06,27,06,20,18.00
2021,06,27,06,21,18.00
2021,06,27,06,22,18.10
2021,06,27,06,23,18.10
2021,06,27,06,24,18.10
2021,06,27,06,25,18.10
2021,06,27,06,26,18.10
2021,06,27,06,27,18.20
2021,06,27,06,28,18.20
2021,06,27,06,29,18.20
2021,06,27,06,30,18.30
2021,06,27,06,31,18.30
2021,06,27,06,32,18.30
2021,06,27,06,33,18.40
2021,06,27,06,34,18.40
2021,06,27,06,35,18.50
2021,06,27,06,36,18.50
2021,06,27,06,37,18.60
2021,06,27,06,38,18.60
2021,06,27,06,39,18.60
2021,06,27,06,40,18.70
2021,06,27,06,41,18.70
2021,06,27,06,42,18.70
2021,06,27,06,43,18.80
2021,06,27,06,44,18.80
2021,06,27,06,45,18.80
2021,06,27,06,46,18.80
2021,06,27,06,47,18.90
2021,06,27,06,48,18.90
2021,06,27,06,49,19.00
2021,06,27,06,50,19.00
2021,06,27,06,51,19.00
2021,06,27,06,52,19.10
2021,06,27,06,53,19.10
2021,06,27,06,54,19.20
2021,06,27,06,55,19.20
2021,06,27,06,56,19.30
2021,06,27,06,57,19.30
2021,06,27,06,58,19.40
2021,06,27,06,59,19.40
2021,06,27,07,00,19.50
2021,06,27,07,01,19.50
2021,06,27,07,02,19.60
2021,06,27,07,03,19.60
2021,06,27,07,04,19.60
2021,06,27,07,05,19.70
2021,06,27,07,06,19.70
2021,06,27,07,07,19.70
2021,06,27,07,08,19.70
2021,06,27,07,09,19.80
2021,06,27,07,10,19.80
2021,06,27,07,11,19.80
2021,06,27,07,12,19.80
2021,06,27,07,13,19.80
2021,06,27,07,14,19.80
2021,06,27,07,15,19.80
2021,06,27,07,16,19.90
2021,06,27,07,17,19.90
2021,06,27,07,18,19.90
2021,06,27,07,19,20.00
2021,06,27,07,20,20.00
2021,06,27,07,21,20.10
2021,06,27,07,22,20.10
2021,06,27,07,23,20.10
2021,06,27,07,24,20.20
2021,06,27,07,25,20.20
2021,06,27,07,26,20.30
2021,06,27,07,27,20.30
2021,06,27,07,28,20.30
2021,06,27,07,29,20.40
2021,06,27,07,30,20.40
2021,06,27,07,31,20.50
2021,06,27,07,32,20.50
2021,06,27,07,33,20.50
2021,06,27,07,34,20.60
2021,06,27,07,35,20.70
2021,06,27,07,36,20.70
2021,06,27,07,37,20.80
2021,06,27,07,38,20.90
2021,06,27,07,39,21.00
2021,06,27,07,40,21.10
2021,06,27,07,41,21.10
2021,06,27,07,42,21.20
2021,06,27,07,43,21.30
2021,06,27,07,44,21.40
2021,06,27,07,45,21.50
2021,06,27,07,46,21.50
2021,06,27,07,47,21.60
2021,06,27,07,48,21.70
2021,06,27,07,49,21.80
2021,06,27,07,50,21.80
2021,06,27,07,51,21.90
2021,06,27,07,52,21.90
2021,06,27,07,53,21.90
2021,06,27,07,54,21.90
2021,06,27,07,55,21.90
2021,06,27,07,56,21.90
2021,06,27,07,57,21.90
2021,06,27,07,58,21.90
2021,06,27,07,59,21.90
2021,06,27,08,00,21.90
2021,06,27,08,01,21.90
2021,06,27,08,02,21.90
2021,06,27,08,03,21.90
2021,06,27,08,04,22.00
2021,06,27,08,05,22.00
2021,06,27,08,06,22.10
2021,06,27,08,07,22.10
2021,06,27,08,08,22.20
2021,06,27,08,09,22.30
2021,06,27,08,10,22.30
2021,06,27,08,11,22.40
2021,06,27,08,12,22.50
2021,06,27,08,13,22.60
2021,06,27,08,14,22.60
2021,06,27,08,15,22.70
2021,06,27,08,16,22.80
2021,06,27,08,17,22.90
2021,06,27,08,18,23.00
2021,06,27,08,19,23.10
2021,06,27,08,20,23.20
2021,06,27,08,21,23.20
2021,06,27,08,22,23.20
2021,06,27,08,23,23.30
2021,06,27,08,24,23.30
2021,06,27,08,25,23.40
2021,06,27,08,26,23.40
2021,06,27,08,27,23.40
2021,06,27,08,28,23.40
2021,06,27,08,29,23.50
2021,06,27,08,30,23.60
2021,06,27,08,31,23.60
2021,06,27,08,32,23.70
2021,06,27,08,33,23.80
2021,06,27,08,34,23.80
2021,06,27,08,35,23.90
2021,06,27,08,36,23.90
2021,06,27,08,37,24.00
2021,06,27,08,38,24.00
2021,06,27,08,39,24.10
2021,06,27,08,40,24.10
2021,06,27,08,41,24.20
2021,06,27,08,42,24.30
2021,06,27,08,43,24.30
2021,06,27,08,44,24.40
2021,06,27,08,45,24.40
2021,06,27,08,46,24.50
2021,06,27,08,47,24.60
2021,06,27,08,48,24.60
2021,06,27,08,49,24.70
2021,06,27,08,50,24.80
2021,06,27,08,51,24.80
2021,06,27,08,52,24.90
2021,06,27,08,53,24.90
2021,06,27,08,54,24.90
2021,06,27,08,55,24.80
2021,06,27,08,56,24.90
2021,06,27,08,57,24.90
2021,06,27,08,58,24.90
2021,06,27,08,59,24.90
2021,06,27,09,00,25.00
2021,06,27,09,01,25.10
2021,06,27,09,02,25.10
2021,06,27,09,03,25.10
2021,06,27,09,04,25.20
2021,06,27,09,05,25.20
2021,06,27,09,06,25.20
2021,06,27,09,07,25.20
2021,06,27,09,08,25.30
2021,06,27,09,09,25.30
2021,06,27,09,10,25.40
2021,06,27,09,11,25.40
2021,06,27,09,12,25.50
2021,06,27,09,13,25.60
2021,06,27,09,14,25.60
2021,06,27,09,15,25.70
2021,06,27,09,16,25.80
2021,06,27,09,17,25.90
2021,06,27,09,18,26.00
2021,06,27,09,19,26.10
2021,06,27,09,20,26.10
2021,06,27,09,21,26.10
2021,06,27,09,22,26.00
2021,06,27,09,23,25.90
2021,06,27,09,24,25.80
2021,06,27,09,25,25.70
2021,06,27,09,26,25.50
2021,06,27,09,27,25.40
2021,06,27,09,28,25.40
2021,06,27,09,29,25.30
2021,06,27,09,30,25.20
2021,06,27,09,31,25.20
2021,06,27,09,32,25.20
2021,06,27,09,33,25.10
2021,06,27,09,34,25.10
2021,06,27,09,35,25.10
2021,06,27,09,36,25.00
2021,06,27,09,37,25.00
2021,06,27,09,38,25.00
2021,06,27,09,39,25.00
2021,06,27,09,40,25.00
2021,06,27,09,41,25.10
2021,06,27,09,42,25.10
2021,06,27,09,43,25.20
2021,06,27,09,44,25.30
2021,06,27,09,45,25.30
2021,06,27,09,46,25.50
2021,06,27,09,47,25.60
2021,06,27,09,48,25.60
2021,06,27,09,49,25.70
2021,06,27,09,50,25.80
2021,06,27,09,51,25.80
2021,06,27,09,52,25.80
2021,06,27,09,53,25.80
2021,06,27,09,54,25.80
2021,06,27,09,55,25.70
2021,06,27,09,56,25.70
2021,06,27,09,57,25.70
2021,06,27,09,58,25.80
2021,06,27,09,59,25.80
2021,06,27,10,00,25.90
2021,06,27,10,01,25.90
2021,06,27,10,02,25.90
2021,06,27,10,03,25.90
2021,06,27,10,04,25.90
2021,06,27,10,05,25.90
2021,06,27,10,06,25.90
2021,06,27,10,07,25.90
2021,06,27,10,08,26.00
2021,06,27,10,09,26.00
2021,06,27,10,10,26.00
2021,06,27,10,11,26.10
2021,06,27,10,12,26.10
2021,06,27,10,13,26.10
2021,06,27,10,14,26.10
2021,06,27,10,15,26.20
2021,06,27,10,16,26.20
2021,06,27,10,17,26.20
2021,06,27,10,18,26.30
2021,06,27,10,19,26.40
2021,06,27,10,20,26.40
2021,06,27,10,21,26.50
2021,06,27,10,22,26.60
2021,06,27,10,23,26.70
2021,06,27,10,24,26.70
2021,06,27,10,25,26.80
2021,06,27,10,26,26.90
2021,06,27,10,27,26.90
2021,06,27,10,28,26.90
2021,06,27,10,29,26.90
2021,06,27,10,30,26.80
2021,06,27,10,31,26.80
2021,06,27,10,32,26.70
2021,06,27,10,33,26.70
2021,06,27,10,34,26.70
2021,06,27,10,35,26.70
2021,06,27,10,36,26.70
2021,06,27,10,37,26.80
2021,06,27,10,38,26.80
2021,06,27,10,39,26.80
2021,06,27,10,40,26.80
2021,06,27,10,41,26.80
2021,06,27,10,42,26.80
2021,06,27,10,43,26.90
2021,06,27,10,44,27.00
2021,06,27,10,45,27.10
2021,06,27,10,46,27.20
2021,06,27,10,47,27.30
2021,06,27,10,48,27.30
2021,06,27,10,49,27.40
2021,06,27,10,50,27.50
2021,06,27,10,51,27.50
2021,06,27,10,52,27.60
2021,06,27,10,53,27.70
2021,06,27,10,54,27.70
2021,06,27,10,55,27.80
2021,06,27,10,56,27.90
2021,06,27,10,57,28.00
2021,06,27,10,58,28.00
2021,06,27,10,59,28.10
2021,06,27,11,00,28.20
2021,06,27,11,01,28.20
2021,06,27,11,02,28.30
2021,06,27,11,03,28.30
2021,06,27,11,04,28.30
2021,06,27,11,05,28.30
2021,06,27,11,06,28.30
2021,06,27,11,07,28.30
2021,06,27,11,08,28.30
2021,06,27,11,09,28.40
2021,06,27,11,10,28.50
2021,06,27,11,11,28.50
2021,06,27,11,12,28.60
2021,06,27,11,13,28.70
2021,06,27,11,14,28.70
2021,06,27,11,15,28.70
2021,06,27,11,16,28.60
2021,06,27,11,17,28.50
2021,06,27,11,18,28.40
2021,06,27,11,19,28.30
2021,06,27,11,20,28.30
2021,06,27,11,21,28.30
2021,06,27,11,22,28.30
2021,06,27,11,23,28.30
2021,06,27,11,24,28.40
2021,06,27,11,25,28.40
2021,06,27,11,26,28.40
2021,06,27,11,27,28.40
2021,06,27,11,28,28.50
2021,06,27,11,29,28.50
2021,06,27,11,30,28.60
2021,06,27,11,31,28.70
2021,06,27,11,32,28.70
2021,06,27,11,33,28.80
2021,06,27,11,34,28.80
2021,06,27,11,35,28.90
2021,06,27,11,36,28.90
2021,06,27,11,37,29.10
2021,06,27,11,38,29.20
2021,06,27,11,39,29.30
2021,06,27,11,40,29.40
2021,06,27,11,41,29.50
2021,06,27,11,42,29.50
2021,06,27,11,43,29.60
2021,06,27,11,44,29.60
2021,06,27,11,45,29.60
2021,06,27,11,46,29.60
2021,06,27,11,47,29.70
2021,06,27,11,48,29.70
2021,06,27,11,49,29.70
2021,06,27,11,50,29.80
2021,06,27,11,51,29.80
2021,06,27,11,52,29.90
2021,06,27,11,53,30.00
2021,06,27,11,54,30.10
2021,06,27,11,55,30.20
2021,06,27,11,56,30.20
2021,06,27,11,57,30.20
2021,06,27,11,58,30.20
2021,06,27,11,59,30.20
2021,06,27,12,00,30.20
2021,06,27,12,01,30.30
2021,06,27,12,02,30.30
2021,06,27,12,03,30.30
2021,06,27,12,04,30.40
2021,06,27,12,05,30.40
2021,06,27,12,06,30.40
2021,06,27,12,07,30.50
2021,06,27,12,08,30.60
2021,06,27,12,09,30.70
2021,06,27,12,10,30.80
2021,06,27,12,11,30.80
2021,06,27,12,12,30.90
2021,06,27,12,13,30.90
2021,06,27,12,14,31.00
2021,06,27,12,15,31.00
2021,06,27,12,16,31.10
2021,06,27,12,17,31.10
2021,06,27,12,18,31.20
2021,06,27,12,19,31.20
2021,06,27,12,20,31.20
2021,06,27,12,21,31.20
2021,06,27,12,22,31.30
2021,06,27,12,23,31.30
2021,06,27,12,24,31.30
2021,06,27,12,25,31.30
2021,06,27,12,26,31.30
2021,06,27,12,27,31.30
2021,06,27,12,28,31.30
2021,06,27,12,29,31.30
2021,06,27,12,30,31.30
2021,06,27,12,31,31.30
2021,06,27,12,32,31.30
2021,06,27,12,33,31.30
2021,06,27,12,34,31.30
2021,06,27,12,35,31.30
2021,06,27,12,36,31.30
2021,06,27,12,37,31.40
2021,06,27,12,38,31.40
2021,06,27,12,39,31.40
2021,06,27,12,40,31.40
2021,06,27,12,41,31.40
2021,06,27,12,42,31.50
2021,06,27,12,43,31.50
2021,06,27,12,44,31.60
2021,06,27,12,45,31.70
2021,06,27,12,46,31.80
2021,06,27,12,47,31.90
2021,06,27,12,48,32.00
2021,06,27,12,49,32.00
2021,06,27,12,50,32.10
2021,06,27,12,51,32.10
2021,06,27,12,52,32.20
2021,06,27,12,53,32.20
2021,06,27,12,54,32.20
2021,06,27,12,55,32.20
2021,06,27,12,56,32.20
2021,06,27,12,57,32.20
2021,06,27,12,58,32.20
2021,06,27,12,59,32.20
2021,06,27,13,00,32.20
2021,06,27,13,01,32.20
2021,06,27,13,02,32.20
2021,06,27,13,03,32.30
2021,06,27,13,04,32.30
2021,06,27,13,05,32.40
2021,06,27,13,06,32.50
2021,06,27,13,07,32.50
2021,06,27,13,08,32.60
2021,06,27,13,09,32.70
2021,06,27,13,10,32.80
2021,06,27,13,11,32.90
2021,06,27,13,12,33.00
2021,06,27,13,13,33.20
2021,06,27,13,14,33.30
2021,06,27,13,15,33.40
2021,06,27,13,16,33.50
2021,06,27,13,17,33.60
2021,06,27,13,18,33.70
2021,06,27,13,19,33.80
2021,06,27,13,20,33.80
2021,06,27,13,21,33.90
2021,06,27,13,22,33.90
2021,06,27,13,23,34.00
2021,06,27,13,24,34.00
2021,06,27,13,25,34.00
2021,06,27,13,26,34.10
2021,06,27,13,27,34.20
2021,06,27,13,28,34.30
2021,06,27,13,29,34.30
2021,06,27,13,30,34.40
2021,06,27,13,31,34.40
2021,06,27,13,32,34.50
2021,06,27,13,33,34.50
2021,06,27,13,34,34.60
2021,06,27,13,35,34.60
2021,06,27,13,36,34.70
2021,06,27,13,37,34.70
2021,06,27,13,38,34.80
2021,06,27,13,39,34.70
2021,06,27,13,40,34.70
2021,06,27,13,41,34.70
2021,06,27,13,42,34.70
2021,06,27,13,43,34.70
2021,06,27,13,44,34.70
2021,06,27,13,45,34.70
2021,06,27,13,46,34.70
2021,06,27,13,47,34.70
2021,06,27,13,48,34.70
2021,06,27,13,49,34.60
2021,06,27,13,50,34.60
2021,06,27,13,51,34.50
2021,06,27,13,52,34.50
2021,06,27,13,53,34.40
2021,06,27,13,54,34.40
2021,06,27,13,55,34.40
2021,06,27,13,56,34.40
2021,06,27,13,57,34.40
2021,06,27,13,58,34.50
2021,06,27,13,59,34.50
2021,06,27,14,00,34.60
2021,06,27,14,01,34.70
2021,06,27,14,02,34.80
2021,06,27,14,03,34.90
2021,06,27,14,04,35.00
2021,06,27,14,05,35.10
2021,06,27,14,06,35.10
2021,06,27,14,07,35.10
2021,06,27,14,08,35.10
2021,06,27,14,09,35.10
2021,06,27,14,10,35.20
2021,06,27,14,11,35.20
2021,06,27,14,12,35.20
2021,06,27,14,13,35.20
2021,06,27,14,14,35.20
2021,06,27,14,15,35.30
2021,06,27,14,16,35.30
2021,06,27,14,17,35.40
2021,06,27,14,18,35.50
2021,06,27,14,19,35.60
2021,06,27,14,20,35.60
2021,06,27,14,21,35.70
2021,06,27,14,22,35.80
2021,06,27,14,23,36.00
2021,06,27,14,24,36.10
2021,06,27,14,25,36.20
2021,06,27,14,26,36.20
2021,06,27,14,27,36.20
2021,06,27,14,28,36.30
2021,06,27,14,29,36.30
2021,06,27,14,30,36.40
2021,06,27,14,31,36.50
2021,06,27,14,32,36.50
2021,06,27,14,33,36.50
2021,06,27,14,34,36.50
2021,06,27,14,35,36.50
2021,06,27,14,36,36.60
2021,06,27,14,37,36.70
2021,06,27,14,38,36.70
2021,06,27,14,39,36.80
2021,06,27,14,40,36.90
2021,06,27,14,41,37.00
2021,06,27,14,42,37.10
2021,06,27,14,43,37.20
2021,06,27,14,44,37.20
2021,06,27,14,45,37.10
2021,06,27,14,46,37.00
2021,06,27,14,47,36.90
2021,06,27,14,48,36.90
2021,06,27,14,49,36.80
2021,06,27,14,50,36.80
2021,06,27,14,51,36.70
2021,06,27,14,52,36.70
2021,06,27,14,53,36.70
2021,06,27,14,54,36.60
2021,06,27,14,55,36.60
2021,06,27,14,56,36.50
2021,06,27,14,57,36.50
2021,06,27,14,58,36.50
2021,06,27,14,59,36.40
2021,06,27,15,00,36.40
2021,06,27,15,01,36.30
2021,06,27,15,02,36.30
2021,06,27,15,03,36.30
2021,06,27,15,04,36.20
2021,06,27,15,05,36.20
2021,06,27,15,06,36.20
2021,06,27,15,07,36.20
2021,06,27,15,08,36.20
2021,06,27,15,09,36.20
2021,06,27,15,10,36.10
2021,06,27,15,11,36.10
2021,06,27,15,12,36.20
2021,06,27,15,13,36.20
2021,06,27,15,14,36.30
2021,06,27,15,15,36.30
2021,06,27,15,16,36.30
2021,06,27,15,17,36.40
2021,06,27,15,18,36.40
2021,06,27,15,19,36.40
2021,06,27,15,20,36.40
2021,06,27,15,21,36.40
2021,06,27,15,22,36.50
2021,06,27,15,23,36.60
2021,06,27,15,24,36.70
2021,06,27,15,25,36.80
2021,06,27,15,26,36.90
2021,06,27,15,27,37.00
2021,06,27,15,28,37.10
2021,06,27,15,29,37.10
2021,06,27,15,30,37.20
2021,06,27,15,31,37.30
2021,06,27,15,32,37.30
2021,06,27,15,33,37.50
2021,06,27,15,34,37.50
2021,06,27,15,35,37.60
2021,06,27,15,36,37.60
2021,06,27,15,37,37.60
2021,06,27,15,38,37.50
2021,06,27,15,39,37.40
2021,06,27,15,40,37.40
2021,06,27,15,41,37.30
2021,06,27,15,42,37.20
2021,06,27,15,43,37.00
2021,06,27,15,44,36.90
2021,06,27,15,45,36.80
2021,06,27,15,46,36.80
2021,06,27,15,47,36.70
2021,06,27,15,48,36.70
2021,06,27,15,49,36.70
2021,06,27,15,50,36.70
2021,06,27,15,51,36.70
2021,06,27,15,52,36.70
2021,06,27,15,53,36.70
2021,06,27,15,54,36.70
2021,06,27,15,55,36.70
2021,06,27,15,56,36.70
2021,06,27,15,57,36.70
2021,06,27,15,58,36.80
2021,06,27,15,59,36.80
2021,06,27,16,00,36.90
2021,06,27,16,01,36.90
2021,06,27,16,02,37.00
2021,06,27,16,03,37.10
2021,06,27,16,04,37.20
2021,06,27,16,05,37.30
2021,06,27,16,06,37.40
2021,06,27,16,07,37.30
2021,06,27,16,08,37.30
2021,06,27,16,09,37.20
2021,06,27,16,10,37.10
2021,06,27,16,11,37.00
2021,06,27,16,12,36.90
2021,06,27,16,13,36.80
2021,06,27,16,14,36.70
2021,06,27,16,15,36.70
2021,06,27,16,16,36.70
2021,06,27,16,17,36.60
2021,06,27,16,18,36.50
2021,06,27,16,19,36.50
2021,06,27,16,20,36.40
2021,06,27,16,21,36.30
2021,06,27,16,22,36.20
2021,06,27,16,23,36.20
2021,06,27,16,24,36.10
2021,06,27,16,25,36.10
2021,06,27,16,26,36.00
2021,06,27,16,27,36.10
2021,06,27,16,28,36.10
2021,06,27,16,29,36.10
2021,06,27,16,30,36.20
2021,06,27,16,31,36.30
2021,06,27,16,32,36.30
2021,06,27,16,33,36.40
2021,06,27,16,34,36.30
2021,06,27,16,35,36.10
2021,06,27,16,36,35.80
2021,06,27,16,37,35.50
2021,06,27,16,38,35.10
2021,06,27,16,39,34.80
2021,06,27,16,40,34.60
2021,06,27,16,41,34.30
2021,06,27,16,42,34.10
2021,06,27,16,43,33.80
2021,06,27,16,44,33.60
2021,06,27,16,45,33.40
2021,06,27,16,46,33.30
2021,06,27,16,47,33.30
2021,06,27,16,48,33.20
2021,06,27,16,49,33.10
2021,06,27,16,50,33.00
2021,06,27,16,51,32.90
2021,06,27,16,52,32.80
2021,06,27,16,53,32.70
2021,06,27,16,54,32.50
2021,06,27,16,55,32.30
2021,06,27,16,56,32.20
2021,06,27,16,57,32.10
2021,06,27,16,58,31.90
2021,06,27,16,59,31.70
2021,06,27,17,00,31.50
2021,06,27,17,01,31.20
2021,06,27,17,02,30.90
2021,06,27,17,03,30.60
2021,06,27,17,04,30.30
2021,06,27,17,05,30.00
2021,06,27,17,06,29.80
2021,06,27,17,07,29.60
2021,06,27,17,08,29.50
2021,06,27,17,09,29.50
2021,06,27,17,10,29.50
2021,06,27,17,11,29.50
2021,06,27,17,12,29.50
2021,06,27,17,13,29.50
2021,06,27,17,14,29.40
2021,06,27,17,15,29.40
2021,06,27,17,16,29.30
2021,06,27,17,17,29.20
2021,06,27,17,18,29.10
2021,06,27,17,19,29.00